Theta_e
346 343 342 340 340 340 341 342 344 343 343 344 344 344 344 345 347 347 348 347 345 345 346 345 344 345 346 348 349 350 349 349 350 349 346 344 344 344 343 343 343 343 343 344 344 345 345 344 344 345 344 344 346 349 351 351 350 350 350 348 347 347 348 349 351 351 350 350 351 351 347 343 340 337 334 336 338 338 339 340 340 341 342 341 341
346 345 342 340 339 339 340 341 342 342 342 342 343 343 345 346 347 347 346 345 344 345 345 345 345 346 348 349 350 349 349 349 349 348 347 347 347 346 344 343 343 343 343 343 344 345 346 346 346 346 345 344 344 347 350 351 351 351 351 348 346 348 349 351 352 351 350 350 350 350 346 343 342 339 335 337 339 339 341 341 341 342 342 341 343
346 345 342 340 339 339 339 340 341 341 341 341 341 342 345 346 346 346 345 344 344 345 346 346 347 348 349 350 350 349 349 348 348 347 346 347 348 348 348 347 346 345 345 344 344 345 346 347 347 347 347 346 345 346 347 348 348 349 349 348 347 349 352 353 353 351 351 350 350 351 348 345 343 339 337 338 339 340 341 341 341 342 341 340 344
346 345 342 341 342 341 340 339 339 340 341 341 341 342 344 345 345 345 345 344 344 345 346 347 348 349 349 350 349 349 349 349 349 348 347 347 348 350 350 350 349 349 349 348 347 348 348 347 348 348 349 349 348 347 346 346 347 347 348 348 348 350 352 352 352 352 351 351 350 349 348 346 343 340 337 338 340 340 340 340 341 342 341 340 344
347 346 345 345 345 345 342 339 339 339 339 340 341 342 343 343 344 344 344 344 345 346 347 348 349 349 350 350 350 350 350 350 351 350 349 349 350 351 351 351 351 351 351 350 349 349 349 349 349 349 350 350 350 349 349 349 350 350 350 350 350 350 352 352 352 351 351 350 349 348 347 346 344 340 338 339 340 340 341 341 342 342 340 340 344
347 347 347 347 347 347 346 342 339 338 339 339 341 342 342 343 343 343 343 344 345 347 348 349 350 350 350 350 350 350 351 351 351 351 350 351 351 351 351 351 351 351 351 350 349 349 349 350 350 350 350 350 349 349 349 349 350 350 350 350 350 349 350 352 352 351 351 350 349 348 347 347 344 341 340 340 340 341 341 341 342 342 339 339 343
346 347 347 348 348 348 349 346 342 339 338 339 339 341 341 342 343 343 343 343 345 347 349 350 350 350 350 350 350 350 351 351 351 351 351 351 351 351 351 351 351 351 350 350 350 349 349 349 350 351 351 350 350 349 350 350 349 349 348 349 350 349 349 351 352 352 351 350 351 350 348 347 346 343 341 341 341 342 341 341 343 341 337 337 340
345 346 347 347 348 348 348 349 346 341 338 338 339 339 340 341 343 343 343 343 345 347 349 350 350 350 350 350 350 350 350 350 350 350 350 351 350 350 350 350 350 350 349 349 349 349 348 348 349 349 350 350 351 351 350 350 349 349 349 349 350 349 349 350 351 352 351 352 352 351 349 348 347 345 343 343 342 342 341 342 343 340 334 335 339
343 345 346 347 347 347 347 348 347 342 339 339 338 338 338 340 342 343 343 343 344 346 348 349 350 350 350 350 350 351 350 350 350 350 349 350 350 350 350 349 349 349 349 348 348 348 348 348 348 348 348 349 350 351 350 350 350 349 349 350 350 350 349 350 350 351 351 351 351 351 349 349 350 348 345 343 342 342 342 343 344 339 332 333 337
342 344 346 347 347 347 347 348 346 342 339 339 339 338 338 340 341 342 343 343 344 346 348 349 349 350 350 350 350 350 349 349 349 348 349 349 349 349 349 349 349 349 349 348 347 347 348 348 349 348 348 348 348 349 350 350 349 349 350 349 349 349 349 349 350 350 350 350 350 351 351 351 353 351 347 344 343 342 343 343 345 340 332 332 336
342 343 345 347 348 348 348 348 347 344 341 341 341 339 338 339 340 342 344 345 346 347 349 350 350 350 350 350 350 349 348 348 348 347 347 347 347 347 347 347 347 348 348 348 348 348 348 349 349 349 349 349 349 349 349 349 348 348 349 350 349 350 350 349 349 349 349 349 349 350 351 352 353 352 349 346 345 344 344 343 345 343 333 330 334
345 345 346 347 349 350 350 351 350 348 345 344 343 341 341 342 345 347 348 348 349 349 350 351 350 350 350 350 350 349 349 348 348 347 346 346 346 346 346 346 346 346 346 346 347 347 348 348 348 348 348 349 350 351 351 351 349 348 348 348 347 347 348 348 349 349 349 348 348 349 350 352 353 351 350 349 347 345 344 343 345 344 335 329 330
348 349 348 347 347 347 349 351 352 351 349 349 349 347 345 346 348 350 351 350 349 349 350 350 350 350 350 350 350 350 349 349 348 348 348 347 346 346 345 345 345 345 345 345 345 346 346 347 346 346 347 348 350 351 350 349 348 348 348 347 346 345 345 344 345 347 347 348 349 349 350 351 352 352 351 350 349 347 345 345 346 343 336 332 333
346 347 348 348 348 347 347 349 350 350 349 349 351 352 349 348 350 351 351 351 350 347 346 348 349 349 349 350 349 349 349 349 349 349 348 348 347 347 346 345 345 345 345 345 345 346 347 347 346 345 345 346 348 348 348 346 346 347 348 348 346 345 345 344 342 342 343 346 349 350 350 351 351 352 351 351 350 348 344 345 346 341 335 334 337
345 344 345 347 349 349 348 348 348 350 349 346 349 352 351 351 351 351 350 351 350 348 347 349 349 348 347 347 347 348 348 348 349 348 348 347 347 347 347 346 346 345 345 345 345 346 347 347 347 346 345 345 345 345 346 345 346 346 346 347 347 347 347 346 343 341 340 343 346 349 350 351 352 352 352 352 350 347 345 346 344 338 335 338 342
346 344 344 346 346 348 348 345 346 350 351 348 348 349 350 350 350 349 348 349 350 349 349 350 349 347 347 347 347 348 348 348 348 348 348 348 348 348 348 347 347 346 345 345 345 345 346 346 347 347 346 346 346 345 345 344 344 345 345 346 347 348 348 348 346 342 340 342 346 349 351 352 352 353 352 351 349 346 346 346 341 338 340 343 345
348 347 347 347 347 347 346 345 346 349 349 349 349 349 349 350 350 348 348 348 349 348 348 348 348 348 348 349 349 349 349 349 349 349 350 349 349 348 348 348 348 348 348 347 346 346 346 346 346 346 346 347 346 346 346 346 344 344 346 347 348 348 349 349 348 344 342 342 345 348 351 351 351 352 351 349 347 346 346 345 342 342 344 345 345
349 349 349 350 349 348 347 346 348 349 348 348 348 348 349 350 349 349 349 349 349 349 348 349 349 349 349 349 349 349 349 349 349 349 349 348 347 347 346 347 347 348 348 348 348 347 347 346 346 346 346 346 346 346 347 347 345 345 345 345 347 349 350 349 348 346 345 346 347 349 350 351 350 351 349 348 347 346 345 344 344 344 344 344 344
346 347 349 350 349 349 348 349 349 349 348 348 349 348 348 348 348 348 348 348 348 348 348 348 348 348 348 348 348 347 347 347 347 347 347 347 347 347 347 347 347 348 348 348 348 348 347 347 347 346 346 346 346 346 346 346 346 346 344 342 345 349 351 349 349 349 348 348 349 349 349 349 348 348 348 347 347 344 341 341 343 343 343 342 340
345 347 348 348 348 348 348 348 347 346 346 346 346 346 346 346 346 346 345 345 345 346 345 345 345 345 346 346 345 345 345 345 345 345 344 344 344 345 344 345 345 345 345 345 345 345 345 345 345 345 345 345 346 346 346 346 346 346 346 345 345 348 350 350 349 349 348 348 350 349 348 348 347 347 346 345 344 341 339 341 342 341 340 339 336
344 345 346 346 346 345 345 344 344 343 343 343 343 344 344 344 344 344 344 344 344 343 343 343 343 344 344 343 343 343 342 341 340 339 339 339 339 339 340 340 340 340 341 341 341 341 342 342 343 343 343 343 344 344 345 346 346 346 346 348 348 348 350 349 347 347 349 349 349 348 347 345 344 342 341 341 341 340 340 341 340 339 337 335 331
340 341 341 341 340 340 341 341 341 341 341 342 342 341 341 341 341 341 341 342 342 341 340 340 339 339 338 338 337 337 336 335 334 334 334 334 335 335 336 336 336 336 337 338 339 340 340 341 342 342 342 342 342 342 343 344 345 345 345 347 349 349 349 348 347 347 349 349 348 348 345 343 340 336 334 338 341 341 340 339 338 336 332 328 326
336 336 337 337 337 337 337 337 336 334 333 333 334 337 338 338 339 339 339 339 339 338 337 337 336 335 334 334 333 332 332 331 330 330 330 330 330 331 331 331 330 327 326 329 335 339 340 340 341 341 341 342 342 342 342 342 342 343 344 345 347 348 347 348 347 347 348 347 347 346 343 340 339 336 332 336 340 340 338 337 334 331 327 325 326
334 334 333 332 332 333 332 332 330 328 326 325 327 330 334 336 337 338 337 337 337 337 336 336 334 333 332 332 331 331 330 329 328 326 324 323 323 322 323 324 324 320 315 315 323 333 338 338 338 340 340 341 341 341 341 341 341 340 340 341 343 343 344 345 345 345 344 341 341 342 339 335 335 335 334 336 338 338 336 334 332 329 328 329 330
326 325 323 321 321 322 322 322 321 320 320 320 320 322 326 330 333 334 335 334 334 334 334 334 334 334 333 332 332 331 330 330 328 326 324 323 321 320 319 318 318 318 314 308 311 322 331 332 332 334 334 334 334 334 336 339 340 340 340 339 338 337 337 338 338 336 334 331 331 333 332 331 333 336 336 336 336 335 333 331 331 332 332 332 332
317 317 316 317 317 316 317 317 317 316 317 317 317 316 319 322 326 328 329 331 332 332 332 333 333 332 331 330 329 328 327 326 326 326 325 324 322 320 317 315 313 314 316 312 309 312 318 321 322 324 325 326 326 326 327 329 331 334 334 331 327 326 326 325 325 325 324 324 328 331 331 333 336 337 336 336 335 333 330 329 331 333 333 332 332
316 316 316 316 315 315 315 314 314 314 313 313 314 314 315 317 318 319 320 323 326 328 329 330 329 329 328 325 321 319 319 320 319 319 318 316 314 311 309 308 308 309 312 314 313 309 309 312 314 316 320 322 323 324 325 325 322 320 320 319 318 318 318 318 321 324 324 327 333 336 335 336 338 337 334 331 329 329 329 331 333 333 332 331 331
318 317 317 317 316 315 315 313 312 311 310 310 310 311 311 312 312 312 312 313 315 317 319 320 321 322 323 320 316 314 314 313 311 310 308 307 306 306 305 304 305 306 307 311 312 310 307 307 309 316 323 324 321 323 328 330 327 322 321 323 322 320 318 321 325 328 327 329 335 337 334 332 333 333 330 326 326 329 332 333 333 331 330 330 330
319 319 318 318 317 316 315 313 312 311 310 310 310 310 310 310 310 309 309 309 310 311 312 312 312 312 312 311 310 309 309 308 307 306 306 306 305 305 304 304 304 305 305 306 308 308 306 305 310 322 328 325 321 324 329 332 332 330 330 331 328 324 324 327 330 331 330 330 332 334 332 330 329 330 329 329 330 333 333 332 331 330 329 329 328
317 317 316 316 316 315 315 314 313 312 312 311 311 311 311 311 310 310 309 309 310 311 312 312 311 310 310 309 309 308 308 308 309 308 307 307 305 304 304 304 304 304 304 305 305 306 305 305 313 325 329 325 323 325 325 326 329 330 331 333 332 331 331 332 333 333 333 332 332 332 332 332 331 331 332 331 331 332 331 331 330 329 328 328 328
316 316 315 314 314 314 314 314 314 313 313 312 311 311 311 311 311 311 311 310 311 312 312 313 312 312 312 311 311 311 311 311 310 309 308 306 305 304 304 304 304 305 305 305 305 305 307 311 319 328 329 326 325 324 321 322 325 327 329 331 331 331 332 331 331 331 331 331 331 330 330 329 329 329 329 328 328 328 327 327 327 326 326 325 325
317 316 316 315 315 315 314 314 313 313 313 312 311 311 310 310 310 310 310 311 311 312 312 313 313 313 312 312 312 311 311 311 310 309 308 307 305 305 305 306 307 308 309 309 309 311 313 318 325 327 325 322 323 323 322 323 325 326 328 329 329 328 328 328 327 327 327 327 326 326 325 325 325 324 323 323 322 322 321 321 321 321 321 320 320
319 318 318 317 317 316 315 314 314 313 313 313 312 311 310 310 309 309 309 310 311 312 313 313 314 313 313 313 312 311 310 310 310 309 308 307 306 306 307 309 311 312 312 315 318 320 321 322 324 325 323 323 324 324 325 325 325 326 326 326 325 325 325 324 324 324 323 323 323 323 323 322 321 320 319 318 318 317 317 317 316 316 317 317 317
321 321 321 320 319 318 317 316 315 314 313 313 313 312 311 310 309 309 309 309 309 310 312 313 314 314 314 314 313 311 310 310 310 310 309 309 308 308 309 311 315 316 317 320 323 324 325 324 324 325 325 324 324 324 324 324 323 323 323 323 323 323 322 322 321 321 321 321 320 320 319 318 317 316 315 314 314 314 314 313 313 314 315 315 315
322 322 322 321 321 320 320 319 318 317 315 315 314 313 312 311 309 309 308 308 307 307 309 312 314 314 315 315 314 313 312 312 312 311 311 310 310 309 309 313 318 321 322 323 324 324 325 324 324 324 324 323 323 322 322 322 322 322 322 321 321 321 321 320 320 319 319 318 317 316 315 313 312 311 311 311 312 312 311 311 311 311 311 312 312
323 323 322 322 322 321 321 321 320 319 318 317 317 315 314 312 311 310 309 309 308 307 307 310 313 314 315 316 316 315 313 313 313 312 312 311 311 310 310 313 319 322 323 323 323 323 323 323 323 322 322 322 322 322 321 321 321 320 320 319 319 318 318 318 317 316 315 314 312 311 310 309 309 309 309 309 309 309 309 308 308 308 308 308 308
322 322 322 322 322 322 322 322 322 321 321 320 319 318 317 315 313 311 310 310 310 309 308 309 311 314 316 317 317 316 315 314 314 313 312 312 311 310 309 312 317 320 321 322 322 322 322 322 321 321 321 320 320 320 319 319 318 318 318 317 316 316 315 314 312 311 310 309 309 308 308 307 307 307 307 307 307 306 306 306 306 306 305 305 305
319 319 320 320 321 321 321 321 322 321 321 321 321 321 320 318 316 314 312 311 312 311 310 309 310 313 315 317 317 317 317 316 315 315 314 313 311 310 309 310 313 316 318 319 319 319 319 319 319 318 318 318 318 317 316 316 316 315 314 313 312 310 309 308 308 307 307 306 306 306 306 306 306 305 305 305 304 304 304 304 304 304 304 304 304
311 312 313 314 315 317 317 318 319 319 319 319 320 321 321 321 320 319 317 314 312 312 312 312 312 313 315 316 316 317 317 317 317 317 316 315 312 310 309 310 312 314 315 316 316 316 316 316 315 315 315 314 314 313 312 311 311 310 308 307 307 306 306 305 305 305 305 305 305 305 305 305 304 304 304 304 304 304 304 304 303 303 303 303 302
305 305 306 307 308 309 310 312 313 314 314 315 316 317 319 320 321 321 321 319 318 315 314 313 313 314 315 315 316 316 317 318 318 318 318 317 313 310 309 310 312 313 313 314 313 313 313 312 312 311 310 310 309 309 308 307 307 306 306 305 305 305 305 304 304 304 304 304 304 304 304 304 303 303 303 303 303 303 303 302 302 302 302 301 301
302 302 302 303 304 304 306 308 309 309 310 311 312 313 314 315 317 318 319 320 320 320 318 317 315 314 315 315 316 316 316 317 318 318 318 318 314 310 310 311 312 312 312 311 311 310 310 309 309 308 308 307 307 307 306 306 306 306 305 305 305 305 305 305 304 304 304 304 303 303 303 303 303 303 303 302 302 302 301 301 301 300 300 301 301
305 305 305 305 305 306 307 308 308 307 307 308 309 310 310 311 312 313 314 315 317 319 320 319 318 317 315 315 315 315 315 316 317 318 318 318 315 311 310 311 311 311 310 309 309 308 308 307 307 307 307 306 306 306 306 306 305 305 305 305 305 305 304 304 303 303 303 302 302 302 302 302 302 302 301 301 301 301 300 300 300 300 301 302 302
307 308 309 309 309 310 310 310 309 308 307 307 307 307 307 308 309 309 310 310 311 314 316 318 319 319 317 315 315 316 316 316 317 318 318 317 314 311 310 310 310 309 309 308 308 307 307 307 306 306 306 306 305 305 304 304 304 304 304 304 304 303 303 302 302 301 301 301 301 301 301 301 301 300 301 301 301 301 301 301 301 301 301 302 302
306 307 307 307 308 308 309 309 309 308 308 307 307 307 307 307 307 308 308 308 308 309 311 312 315 317 317 316 315 316 316 316 316 317 318 317 314 311 310 310 309 308 308 307 307 307 307 306 306 306 305 305 304 304 303 303 303 303 303 302 302 301 301 300 300 300 300 300 300 300 300 301 300 300 300 300 300 300 301 301 301 301 301 301 302
306 306 306 306 307 307 307 308 308 308 308 308 309 310 310 309 309 309 309 309 309 309 309 309 311 314 316 317 316 315 315 316 316 316 316 315 313 311 310 309 309 308 307 307 307 306 306 306 305 305 305 304 304 303 302 301 301 301 301 300 300 299 299 299 298 298 299 299 299 299 299 299 299 299 300 300 300 300 301 301 301 301 301 301 301
307 308 308 308 308 308 308 308 309 309 309 309 310 311 311 311 311 310 310 310 310 310 310 309 310 312 315 316 316 315 314 315 315 315 315 314 313 311 310 309 308 308 307 307 306 306 306 305 305 305 304 303 303 302 301 301 300 299 299 299 298 298 298 297 297 297 297 297 297 297 298 298 298 299 299 300 300 301 301 301 300 300 300 301 301
307 308 308 308 309 309 310 310 310 310 309 310 310 310 310 311 311 311 311 311 311 310 310 310 311 313 315 316 315 314 314 314 315 314 314 313 312 311 310 309 308 307 307 307 306 306 305 305 304 304 303 302 302 301 300 300 299 298 298 297 297 297 297 297 296 296 297 296 297 297 298 298 299 299 300 300 300 300 300 300 300 300 300 301 301
306 307 308 309 309 309 310 310 310 310 310 310 310 310 310 311 311 311 312 312 312 312 312 312 313 313 314 314 314 313 313 313 313 313 312 312 310 309 309 308 307 307 307 306 306 305 304 304 304 303 302 301 300 300 299 299 298 297 297 296 296 296 296 295 295 296 297 297 297 298 299 299 299 300 300 300 300 300 300 300 300 300 300 301 301
306 307 308 309 309 309 309 309 309 309 310 310 310 310 310 310 311 311 311 311 311 311 311 312 312 312 313 313 313 312 312 312 311 310 310 309 309 308 308 307 306 306 306 305 305 304 303 303 302 301 301 300 300 299 298 298 297 297 296 296 296 295 294 294 294 295 297 297 298 298 299 299 299 300 300 300 300 300 300 300 300 300 300 301 301
306 307 308 308 308 308 308 308 309 309 309 309 309 308 308 309 309 309 309 309 309 309 310 310 310 310 310 311 311 312 312 311 309 308 308 307 307 307 306 305 305 305 305 304 303 302 302 301 301 300 299 299 298 298 297 297 297 296 296 295 294 294 293 293 294 296 296 297 298 299 299 298 299 299 299 299 299 299 300 300 300 300 301 301 301
306 307 307 307 307 307 307 307 307 307 307 307 307 307 307 307 308 308 308 308 308 308 308 308 308 308 309 309 309 310 310 309 307 307 307 306 305 304 304 304 303 303 303 302 301 300 300 299 299 299 299 298 297 297 296 296 296 296 295 294 293 293 293 294 295 296 296 297 298 298 298 298 298 298 298 298 299 299 299 300 300 300 301 301 301
Wind_Speed
21 20 20 20 19 18 18 17 17 17 16 16 16 14 13 13 12 13 13 12 12 12 11 10 10 10 10 10 10 10 10 10 10 10 10 10 9 9 10 10 10 10 10 10 10 10 11 11 11 11 12 12 12 13 13 13 14 14 13 13 11 10 11 12 13 13 10 6 5 6 6 8 10 10 10 10 12 13 14 14 15 16 17 17 17
22 21 21 21 20 19 18 17 17 17 17 17 17 16 14 13 12 13 13 13 12 11 11 10 9 9 9 10 10 10 10 10 10 10 10 10 9 9 10 10 10 10 11 11 10 11 11 11 11 12 12 12 12 13 13 13 14 13 13 13 11 10 10 12 13 13 11 7 6 6 7 8 10 10 10 11 12 13 13 14 15 16 17 16 14
22 21 22 21 20 19 19 18 18 17 17 17 17 17 16 14 13 12 12 12 11 11 11 10 10 9 9 9 10 10 10 10 10 10 10 10 10 9 9 9 9 9 10 10 10 11 12 12 12 12 12 13 13 13 14 14 14 14 14 13 11 11 11 12 13 13 12 10 7 6 7 8 9 10 10 10 12 12 13 14 15 16 16 15 12
21 22 22 21 20 20 20 19 19 19 18 18 17 17 17 16 14 13 12 12 12 11 11 11 11 11 10 9 9 9 9 9 9 10 10 10 9 9 8 9 9 9 9 10 10 11 12 13 13 12 13 13 13 13 13 14 14 14 14 13 12 12 13 14 14 14 14 12 9 8 8 9 9 9 9 10 11 11 12 14 15 15 14 13 11
21 22 23 22 21 20 20 20 21 20 19 19 18 17 17 17 16 14 13 13 13 12 12 12 12 12 11 10 9 8 8 8 9 9 10 9 9 8 9 9 9 10 10 11 11 12 13 13 13 13 14 14 13 13 13 14 14 14 14 14 13 14 14 14 14 14 14 13 11 10 10 10 9 9 9 9 10 11 12 13 14 14 13 11 10
22 23 23 23 22 21 20 20 21 21 20 20 19 18 17 17 16 16 15 14 13 13 13 13 13 13 12 10 10 9 9 9 9 9 9 10 9 9 9 10 10 10 11 11 12 13 13 14 13 13 14 14 14 14 14 14 15 16 16 15 15 15 15 15 15 14 14 13 12 12 12 11 10 9 9 9 10 11 11 12 12 13 12 10 9
23 23 24 23 23 21 20 20 21 21 20 20 19 18 17 17 17 16 16 15 14 14 13 13 13 13 13 12 11 10 10 10 10 10 10 10 10 10 10 11 11 11 12 12 13 14 14 15 15 14 14 14 14 14 14 15 16 17 16 16 15 15 16 16 16 15 15 15 14 14 13 12 10 10 9 10 10 11 11 11 11 12 11 9 8
25 25 24 24 23 21 21 20 20 20 20 19 19 19 18 17 16 16 16 16 16 15 14 14 13 14 14 14 12 12 12 12 12 11 11 11 12 12 12 12 13 13 13 13 13 14 14 15 16 16 16 15 14 13 14 15 16 17 17 16 16 15 16 17 17 17 16 16 15 15 15 14 12 11 10 10 10 10 11 11 11 11 11 9 7
28 27 26 25 23 21 20 20 20 20 20 19 20 19 18 17 17 16 16 16 16 16 15 14 14 14 14 14 13 13 13 13 13 13 13 14 14 14 14 14 15 15 15 14 14 14 15 15 16 16 16 16 15 15 14 15 16 16 15 15 15 15 15 16 17 18 17 17 17 17 17 16 13 12 11 10 10 10 11 11 11 10 10 9 7
31 30 28 27 24 22 20 20 19 20 21 20 20 20 19 18 17 17 16 16 16 16 15 15 14 14 14 14 14 14 14 14 14 14 15 16 16 16 16 16 17 17 17 16 16 16 16 16 17 17 17 18 18 17 16 15 16 16 16 15 15 15 15 16 17 18 18 18 19 18 18 15 12 11 12 11 10 11 10 11 11 10 9 8 8
33 33 31 29 27 26 24 21 20 20 21 20 20 20 20 19 18 17 16 16 16 17 17 16 16 15 15 14 14 14 14 14 15 15 16 17 18 19 19 18 19 19 19 19 18 18 18 18 18 19 19 18 18 19 18 16 15 16 16 16 15 16 16 17 17 18 18 19 20 19 18 16 13 13 13 12 11 11 11 11 11 11 9 8 8
32 33 32 31 29 28 25 23 22 20 20 20 19 19 19 18 18 17 17 17 18 18 18 18 17 16 16 16 16 16 16 16 15 16 17 17 18 20 20 20 20 21 21 21 20 20 20 20 20 20 20 19 19 19 19 17 15 15 15 16 16 16 17 17 18 18 18 19 20 19 18 16 15 14 13 12 13 13 12 12 11 11 10 9 9
31 31 31 31 30 28 27 24 22 20 20 19 19 18 19 20 20 19 18 18 19 19 19 18 19 18 18 18 18 19 19 19 19 19 20 20 20 20 20 21 21 22 23 23 23 23 22 22 22 21 21 20 20 21 22 19 17 16 17 18 18 18 18 19 19 19 19 19 18 18 18 16 16 15 14 14 15 14 13 13 12 11 11 9 9
30 30 30 30 29 27 28 26 22 20 21 20 18 19 21 21 21 20 18 18 18 17 16 17 19 19 19 19 20 21 22 22 22 22 23 23 23 23 23 23 23 23 24 24 24 25 24 24 24 24 23 23 23 23 23 23 21 20 20 20 20 20 20 21 21 21 21 20 18 18 18 17 16 17 16 15 15 14 14 13 12 10 10 9 8
30 30 31 30 26 23 25 26 23 21 22 21 18 17 17 17 18 19 17 16 16 16 15 16 18 19 19 19 20 22 23 23 23 24 24 24 24 24 25 25 25 26 26 25 25 26 26 26 26 26 26 25 23 22 23 24 25 25 24 24 23 22 21 21 21 22 22 21 19 18 18 18 17 17 16 16 15 14 13 12 11 9 8 7 7
30 31 32 31 27 23 23 24 23 21 19 19 17 15 14 14 16 17 16 16 15 15 14 16 17 18 18 18 20 21 22 23 23 24 24 24 24 24 24 24 25 26 27 27 27 28 28 28 28 28 29 28 27 26 27 28 27 28 29 28 27 26 24 22 21 22 22 21 20 19 18 19 18 17 16 16 15 14 12 11 10 7 5 5 5
29 30 30 31 29 25 24 23 22 20 16 15 15 14 13 13 14 15 16 15 14 13 13 15 17 18 19 19 20 21 23 24 25 25 25 25 25 25 25 26 26 27 28 28 28 29 28 29 30 30 31 32 32 32 31 30 29 29 29 29 29 30 29 25 23 22 22 21 19 18 18 19 18 16 16 16 15 13 11 8 6 4 4 5 4
28 29 28 27 26 24 22 20 17 15 13 12 13 14 14 12 11 12 13 14 14 14 14 16 17 18 20 20 21 22 23 24 25 26 26 26 26 26 27 27 27 28 29 30 30 30 31 31 32 33 34 34 35 35 34 32 31 31 31 31 32 32 31 29 26 23 21 20 19 18 18 18 17 16 16 15 14 12 9 6 5 6 5 5 5
20 21 21 20 19 16 14 13 13 13 13 12 12 13 12 10 9 9 11 13 14 14 14 15 16 18 19 19 20 20 21 22 23 24 24 25 25 25 26 27 27 28 29 31 31 31 32 33 34 35 36 36 38 38 38 36 35 34 34 34 33 31 28 27 27 25 22 19 18 19 19 18 16 15 15 15 13 11 8 7 7 7 6 6 7
13 14 14 14 13 12 11 10 10 10 8 7 7 8 8 8 7 7 8 10 11 12 14 15 16 18 18 17 16 16 16 17 18 18 18 18 18 18 19 20 21 22 24 25 26 27 27 28 29 29 30 31 32 35 36 37 37 37 37 35 34 31 28 26 26 24 20 18 18 19 19 19 18 15 13 13 12 10 8 7 7 7 6 5 6
11 12 13 14 14 14 13 11 9 8 8 7 8 7 5 4 4 4 5 7 8 9 9 9 10 10 10 9 8 8 8 8 8 8 8 8 9 9 9 10 11 12 14 15 17 18 19 19 19 19 19 21 24 28 30 31 32 35 37 35 33 32 29 26 24 22 20 19 19 19 19 18 15 13 11 10 9 9 9 9 8 6 4 4 5
15 15 15 16 16 16 15 12 10 9 8 7 8 8 7 7 6 5 4 3 3 3 2 2 2 2 1 1 1 1 2 2 3 4 5 5 5 6 5 6 7 8 9 10 11 12 12 12 12 14 15 17 19 21 25 27 28 31 34 33 31 30 27 25 22 21 21 21 20 20 19 16 12 8 8 10 10 9 8 8 7 6 5 4 3
19 19 19 19 19 18 17 16 14 14 14 12 11 10 11 10 9 9 8 7 6 5 5 4 5 5 5 4 4 4 4 5 5 5 6 7 7 7 7 7 7 8 9 9 9 8 8 9 11 12 13 14 15 18 18 20 24 26 28 28 27 24 22 21 21 19 19 19 18 18 17 16 15 11 9 12 12 9 7 7 6 4 3 2 1
20 21 21 21 19 17 16 15 15 15 15 15 13 13 12 11 10 10 9 8 7 6 5 6 6 6 6 6 6 6 6 7 7 7 7 8 8 9 9 9 9 8 9 9 8 7 7 8 9 11 12 13 15 17 16 13 15 18 20 22 21 19 19 19 17 13 12 11 13 15 14 12 12 12 13 14 13 9 7 6 5 3 1 2 4
21 22 22 21 20 18 17 17 16 16 15 14 13 12 12 11 10 9 8 7 7 6 5 5 5 4 4 5 5 6 7 7 8 8 8 8 9 9 10 11 11 10 10 10 9 8 7 8 9 10 11 13 14 14 13 11 9 11 13 14 11 9 10 11 9 5 3 6 9 11 9 6 8 13 14 13 11 8 5 7 7 5 3 4 6
23 23 22 22 20 19 19 18 17 16 15 13 13 12 11 10 9 9 8 7 6 6 5 4 3 1 2 3 5 6 7 8 8 9 10 10 11 11 11 12 12 12 11 10 10 9 8 8 9 9 10 11 11 10 10 8 6 5 6 4 3 3 3 4 6 5 3 2 3 5 6 8 11 13 11 8 7 6 8 10 10 8 6 6 7
22 21 21 20 19 19 18 17 16 15 14 13 12 11 11 10 9 8 7 6 5 4 4 3 2 3 4 6 7 8 8 9 10 11 12 12 13 12 12 11 11 10 10 10 10 10 9 8 8 8 8 9 9 9 8 7 6 6 6 6 7 7 8 9 8 6 4 4 6 8 8 8 11 11 8 7 9 11 12 12 12 10 8 8 9
20 20 19 18 18 18 17 16 15 14 13 12 11 11 10 10 9 8 7 6 5 4 4 3 4 4 6 8 9 9 10 11 12 12 12 12 12 12 11 10 9 9 9 9 9 9 8 7 8 8 8 8 9 10 9 8 7 6 5 5 5 6 7 7 6 5 5 8 10 10 9 9 10 11 11 12 13 13 13 12 12 11 10 10 11
19 19 18 18 18 18 17 17 16 15 15 14 13 12 11 11 10 9 8 8 7 6 6 6 6 6 7 8 9 10 10 11 12 12 12 12 12 12 10 9 8 8 8 8 7 8 7 6 6 6 5 6 8 9 9 9 8 6 4 3 3 4 4 4 3 3 5 9 11 11 10 10 10 11 12 12 12 12 12 12 11 11 11 12 13
17 18 17 17 17 17 16 16 16 15 15 14 13 13 12 12 11 10 10 9 8 8 8 8 8 8 8 9 10 10 11 11 11 11 11 11 12 11 10 8 7 7 7 7 7 6 5 4 4 3 2 3 5 6 8 8 7 6 5 4 4 4 3 3 3 3 4 6 8 9 10 9 9 8 9 9 9 9 10 10 10 11 12 13 14
15 16 16 16 16 15 15 15 14 14 13 13 13 12 12 12 11 11 10 9 9 8 8 8 9 9 9 10 10 10 10 10 10 10 10 10 10 10 9 8 7 7 6 6 6 5 4 3 2 2 2 3 3 4 6 6 5 5 5 5 5 5 6 6 7 6 5 4 5 5 4 4 4 4 5 5 5 7 8 9 10 11 12 14 15
13 14 14 14 13 13 13 13 12 12 12 12 12 12 11 11 10 10 10 9 9 9 9 9 9 9 10 10 10 10 10 10 10 9 9 8 8 8 7 7 8 7 7 6 6 5 4 2 2 2 1 2 3 3 4 3 2 3 4 5 6 7 7 7 7 6 4 3 2 1 1 1 2 3 4 5 6 7 8 9 11 12 13 15 16
13 13 13 13 13 13 13 12 12 11 11 11 11 11 11 10 10 9 9 9 9 9 9 9 10 10 10 10 10 10 10 9 9 8 8 7 7 6 7 8 8 8 8 8 7 6 4 2 2 1 1 1 1 2 3 4 4 4 4 4 5 5 4 4 3 2 1 1 1 2 4 5 6 6 7 8 9 10 10 11 12 13 14 15 16
12 12 12 13 13 13 13 13 13 13 12 12 12 12 11 10 10 9 9 9 9 9 9 9 10 10 10 10 10 10 9 9 8 8 7 7 7 7 8 9 9 9 9 9 8 7 6 5 4 4 5 6 6 6 6 5 5 4 3 3 4 3 3 4 4 4 5 5 6 6 7 8 8 9 9 10 11 11 12 12 13 14 15 16 17
8 9 9 10 11 11 12 12 12 12 13 13 13 13 13 12 12 11 10 9 9 9 9 9 10 10 10 10 9 9 9 8 7 6 6 6 7 7 8 9 8 8 7 7 6 6 6 6 6 6 6 6 5 5 4 3 3 3 3 3 4 4 5 6 7 8 8 9 9 10 10 10 11 11 11 11 12 12 13 13 14 15 16 17 18
5 6 7 7 8 9 10 11 11 12 12 12 12 12 12 12 12 12 12 11 10 9 9 9 9 10 10 10 9 9 8 7 6 6 5 6 7 7 6 5 4 4 4 4 4 4 4 4 4 4 3 2 2 1 1 2 2 3 4 5 6 7 8 9 10 10 11 11 11 11 12 12 12 12 12 12 13 13 14 14 15 15 16 17 17
6 7 7 8 9 9 10 11 11 12 12 12 12 13 13 12 12 12 12 12 12 11 10 10 9 10 10 10 10 10 9 8 7 6 6 6 7 6 3 1 0 1 2 2 3 2 2 2 2 1 1 1 1 3 3 5 6 7 8 9 9 10 10 11 12 12 12 12 12 12 13 13 13 14 14 14 14 14 14 15 14 14 15 15 14
8 9 9 10 11 11 12 12 13 13 13 13 13 13 14 14 14 13 13 13 12 11 11 11 11 11 11 11 12 12 12 10 9 8 7 7 7 6 2 1 2 2 2 2 2 2 2 1 1 2 2 3 4 5 6 7 8 9 10 10 11 11 11 12 12 12 12 13 13 13 13 14 14 14 14 15 15 15 14 13 13 12 12 12 12
10 11 11 12 12 13 14 14 15 15 14 14 14 14 14 14 14 15 15 15 14 14 13 12 12 12 12 13 13 14 14 13 12 10 9 8 7 5 3 2 2 3 3 2 2 2 2 2 3 3 4 5 6 6 7 8 8 9 10 10 11 11 12 12 13 13 13 13 13 13 13 13 13 14 14 13 13 13 12 12 12 11 11 11 11
12 12 12 13 13 13 14 14 14 15 15 15 15 15 14 14 13 13 13 13 15 16 16 16 15 13 13 13 14 14 15 15 15 13 11 10 8 5 4 3 3 3 2 2 2 2 2 3 3 4 5 5 6 7 7 8 9 10 10 11 11 12 12 12 13 13 13 13 14 14 14 14 14 13 13 12 11 11 10 10 10 9 9 10 10
10 10 10 11 11 12 12 12 12 13 13 14 14 15 15 15 15 14 13 13 13 15 16 17 18 18 16 15 15 15 15 16 16 15 13 12 10 6 5 4 3 3 2 1 1 1 3 3 4 5 6 7 8 9 10 10 11 12 12 11 11 10 10 11 12 13 13 14 14 14 14 14 13 12 11 10 9 9 9 8 8 9 9 9 9
9 9 10 10 11 11 11 11 12 13 13 14 14 15 15 16 17 17 17 17 16 16 16 17 19 19 18 17 16 16 16 17 17 16 14 12 10 8 6 5 4 3 2 1 2 2 3 4 6 7 8 9 10 11 11 11 11 11 10 9 8 7 7 9 12 14 14 14 15 15 14 13 12 10 9 8 7 7 7 7 7 7 7 6 6
9 9 10 11 11 12 12 13 14 15 15 16 16 17 17 17 18 18 19 19 19 19 18 18 18 18 19 18 17 16 17 17 17 17 16 13 11 9 8 6 4 3 2 1 2 3 4 6 7 8 10 10 11 11 11 10 9 7 5 5 7 7 7 9 11 12 13 14 15 14 12 11 9 8 7 7 6 6 5 5 5 5 4 4 4
9 10 11 12 12 13 14 15 15 16 17 17 17 17 17 18 18 19 19 20 21 20 20 20 19 19 20 21 19 18 18 19 19 18 18 15 12 10 9 7 5 4 3 1 1 3 5 8 9 10 11 11 11 11 10 9 6 3 2 3 4 5 6 7 8 9 11 12 12 11 9 7 6 5 5 5 5 5 4 4 4 5 5 4 4
8 9 10 11 11 12 13 14 15 16 16 16 16 16 15 15 16 16 17 18 19 19 20 21 20 19 20 21 21 20 20 21 21 20 19 17 14 13 11 9 7 6 4 2 1 4 6 9 11 11 12 12 12 11 9 8 6 4 2 2 3 3 5 6 7 8 10 10 8 7 5 4 4 4 4 5 5 5 4 4 5 5 6 5 4
9 9 10 11 11 12 13 14 14 15 16 16 15 15 15 15 15 16 16 17 18 19 20 22 21 19 17 19 21 21 20 22 22 20 20 19 17 15 14 11 9 7 6 3 3 4 7 9 11 11 12 13 12 9 7 6 6 5 4 4 4 4 5 6 7 8 8 8 6 4 4 3 3 4 4 4 4 4 4 4 4 5 5 5 4
10 10 11 11 12 12 12 12 13 14 15 15 15 15 16 16 16 16 16 16 17 18 19 20 20 18 17 18 20 20 20 23 24 23 23 22 20 18 15 12 9 8 6 4 4 6 8 10 11 12 12 12 10 7 5 4 5 5 6 7 6 5 7 9 9 7 6 5 3 2 3 3 3 4 4 4 4 4 4 4 5 5 5 4 4
11 12 12 12 12 12 12 12 13 14 14 14 14 14 15 15 15 15 15 15 16 17 17 18 19 18 17 18 19 19 21 24 26 26 25 23 20 16 13 10 8 6 5 5 6 7 9 10 11 13 12 9 6 5 5 4 4 6 8 8 7 8 11 11 9 5 3 2 1 1 2 3 3 3 4 4 4 4 4 5 5 5 4 3 3
12 13 12 12 13 13 12 12 12 12 12 12 12 12 12 12 12 13 13 13 14 14 15 15 15 15 14 15 16 18 21 24 25 25 23 20 18 14 11 8 6 5 6 6 7 7 8 10 12 12 10 7 4 4 4 3 3 4 4 5 9 13 13 10 6 3 1 0 0 2 3 3 3 3 4 4 4 4 4 4 4 4 3 3 3
11 11 11 11 11 11 11 10 10 9 9 10 10 10 9 9 9 8 8 9 10 10 11 11 12 12 12 12 12 15 20 21 21 21 19 14 11 9 7 5 4 5 6 7 7 7 8 10 11 9 7 5 3 4 4 3 2 2 3 6 11 13 10 5 2 2 1 0 1 2 3 3 4 4 4 4 4 4 4 4 3 3 3 3 3
9 9 9 9 10 10 10 9 9 9 9 9 9 9 9 8 8 8 8 9 9 9 10 11 12 12 12 12 12 13 15 13 13 15 13 10 7 5 4 4 5 6 7 7 7 7 8 9 7 5 4 3 3 4 4 2 2 3 6 10 12 10 4 0 1 2 1 1 2 3 3 3 4 4 5 5 4 3 3 3 3 2 3 3 3
Wind_Direction
229 228 227 227 228 228 229 231 232 233 233 230 231 232 232 232 234 233 234 236 236 238 238 239 240 241 241 241 244 248 250 253 259 263 264 262 262 264 264 264 264 267 268 267 269 271 271 272 273 276 277 274 270 268 270 275 281 285 288 289 288 284 281 281 285 293 303 311 315 315 321 334 337 335 341 349 348 347 346 342 341 345 348 347 344
229 227 226 226 227 228 228 229 231 233 234 233 231 231 229 229 232 233 234 236 236 236 236 236 235 234 235 239 243 247 248 250 254 257 259 259 262 266 266 266 266 269 271 271 270 269 270 274 276 277 277 275 272 271 271 275 280 283 287 288 287 283 280 282 285 290 297 304 305 309 320 334 338 336 343 349 347 348 347 343 343 347 348 350 350
228 226 224 223 225 227 227 227 229 230 232 233 231 230 229 227 230 231 233 235 236 236 235 234 232 230 234 240 243 246 247 247 249 253 257 258 259 261 261 264 267 270 273 274 271 268 270 273 276 277 280 280 279 277 276 278 280 281 282 283 281 279 280 283 283 284 291 295 293 301 315 328 334 337 343 346 343 345 346 343 344 346 347 352 354
227 223 220 220 221 224 225 224 225 226 229 231 230 230 229 228 229 231 232 233 234 235 237 236 234 234 238 242 244 247 248 247 250 253 254 255 256 256 256 260 266 270 273 274 272 269 269 272 273 274 279 284 284 283 281 282 283 283 284 283 279 277 279 280 279 280 284 286 285 291 306 320 330 333 337 340 339 339 342 342 341 344 349 354 355
227 223 219 218 220 222 223 224 224 225 226 227 228 230 230 230 230 230 231 231 231 232 234 235 235 236 236 238 242 246 249 252 254 254 252 252 255 258 260 263 268 273 275 276 275 274 272 272 273 274 278 281 283 283 282 282 283 282 283 282 278 274 273 273 275 277 277 277 280 287 300 312 322 326 329 333 334 335 340 340 337 342 351 357 358
225 224 221 221 222 224 225 226 225 225 225 226 226 227 229 230 231 231 230 229 229 230 231 232 234 233 233 235 239 243 249 255 256 253 251 253 258 263 267 271 274 277 279 281 281 279 276 274 274 275 276 278 280 280 280 280 280 279 279 279 278 276 272 270 270 272 271 271 275 282 293 304 314 319 322 326 331 332 334 336 335 338 348 358 2
223 223 223 224 226 228 230 231 230 227 227 228 227 227 230 233 233 232 231 230 230 230 232 234 235 234 233 234 237 242 248 253 255 255 255 259 263 268 271 276 280 283 284 286 285 283 280 277 276 276 276 278 280 281 281 280 277 275 274 276 278 277 273 269 265 266 268 270 272 278 289 300 308 311 315 322 327 327 327 332 335 336 342 352 1
221 221 223 224 226 229 233 236 235 231 230 231 231 230 231 234 236 234 232 232 232 232 233 237 239 239 237 238 242 247 250 253 255 256 259 265 268 272 275 277 280 284 286 290 289 287 282 278 276 275 275 277 279 280 282 282 280 277 275 274 275 275 272 267 263 264 266 269 269 273 284 296 301 304 310 315 319 319 322 329 334 336 336 341 355
225 224 224 225 224 225 229 234 235 234 232 232 232 232 232 234 237 237 235 234 235 234 234 237 242 244 244 245 248 253 257 258 258 259 261 265 269 272 275 277 279 281 283 286 288 288 286 282 278 276 276 276 276 276 277 280 281 280 276 273 272 273 271 266 263 263 265 268 269 273 281 289 293 298 303 305 307 312 317 324 329 332 332 330 334
231 230 229 229 229 228 229 231 231 230 230 230 231 232 232 234 237 238 238 237 236 234 234 237 242 246 249 252 257 263 267 266 263 260 260 262 265 269 272 275 276 276 278 280 282 286 288 288 284 281 279 277 275 274 274 275 276 276 274 272 270 270 270 266 264 266 267 268 269 271 276 279 280 288 294 297 303 309 313 318 320 320 323 321 316
238 238 238 237 237 236 234 234 233 230 228 228 230 231 232 234 236 237 237 236 235 234 234 237 240 243 248 254 260 266 269 269 269 267 264 263 265 268 272 275 274 273 273 275 277 281 285 287 288 286 282 279 278 277 273 270 270 271 270 268 268 267 267 266 266 267 268 269 269 269 271 271 273 281 289 293 299 304 307 309 311 311 312 309 302
240 241 241 242 243 243 242 237 233 231 229 229 229 229 229 229 230 230 231 232 233 234 237 241 242 243 247 253 258 263 267 271 275 276 275 274 272 273 275 276 276 273 272 272 274 276 279 281 284 285 281 279 278 276 272 270 271 272 272 273 273 271 269 269 269 268 268 268 269 268 267 269 274 281 284 286 291 297 302 304 305 304 303 302 297
239 240 241 244 246 248 250 246 239 232 228 231 234 229 224 222 223 224 228 231 233 236 241 244 245 246 249 254 259 263 266 270 273 275 278 279 279 280 280 279 277 275 273 272 272 273 275 277 279 280 279 277 274 273 273 274 271 266 269 276 278 278 276 274 271 270 269 268 266 266 266 268 274 279 280 281 286 293 298 301 302 300 297 295 293
237 239 243 246 246 246 247 247 246 236 226 228 238 235 226 221 223 226 230 235 238 242 246 248 250 252 255 258 261 264 266 268 270 272 275 277 278 279 279 280 279 278 276 274 273 273 273 274 274 275 276 274 272 274 278 280 275 267 264 267 271 275 278 277 273 269 267 266 265 265 267 268 269 273 276 280 285 289 294 298 300 297 294 292 290
235 236 238 241 244 245 240 239 245 244 231 227 236 242 236 229 228 230 233 240 246 249 251 254 256 257 258 262 266 267 267 268 270 272 274 275 276 276 276 276 276 276 276 275 274 273 273 273 274 274 273 271 271 276 280 281 279 273 267 264 265 268 272 275 274 269 265 265 264 262 263 265 266 268 273 278 284 288 292 295 295 294 293 293 295
233 232 232 233 237 240 234 232 242 248 238 229 233 243 249 245 240 239 242 249 253 253 257 262 264 263 261 263 265 267 268 269 271 272 273 274 275 275 275 274 274 273 273 272 272 272 272 272 273 273 272 270 270 274 278 281 280 277 273 269 267 267 268 270 272 269 264 261 260 258 259 261 263 266 272 279 284 288 292 294 295 295 288 281 286
230 228 227 227 230 232 228 228 238 245 241 236 236 241 246 248 251 251 251 253 254 256 262 267 267 265 262 261 263 266 269 272 273 274 274 273 274 274 274 274 274 274 273 272 272 273 273 274 274 273 273 272 271 272 274 276 277 276 276 273 269 267 268 269 268 266 264 262 260 258 259 261 263 267 273 278 282 286 292 295 286 268 261 265 260
230 229 225 220 221 224 226 227 231 236 239 235 230 233 240 247 256 259 254 252 254 257 262 265 265 265 264 264 264 267 270 273 273 273 273 272 272 272 273 273 273 272 272 272 272 273 274 274 273 272 272 272 272 272 271 271 271 271 271 272 271 268 267 269 269 262 256 256 257 257 258 261 266 271 275 279 282 283 285 273 248 240 245 250 254
208 209 207 205 206 211 215 215 214 220 229 229 223 228 238 244 252 257 255 255 256 257 260 264 266 268 268 267 268 270 272 274 275 276 276 276 275 275 275 275 274 274 274 274 274 275 275 275 275 274 273 272 272 272 271 270 268 267 265 264 264 264 263 266 267 260 251 248 252 257 260 262 265 270 275 278 279 279 275 256 238 240 242 242 256
162 164 167 170 172 167 161 165 172 181 191 193 193 207 226 238 246 248 243 245 251 256 261 265 266 268 269 270 272 274 277 280 283 285 287 287 287 285 283 283 283 283 283 282 282 282 282 281 281 281 280 279 276 273 272 270 267 266 264 259 257 257 258 261 262 260 258 257 257 259 262 264 266 269 274 278 274 268 261 245 233 237 241 244 257
131 135 138 137 136 135 134 137 137 134 131 130 136 147 164 187 203 210 215 229 244 255 262 264 261 261 265 267 270 276 283 292 299 305 308 307 308 306 302 300 300 299 298 298 296 294 293 291 291 291 292 290 284 275 270 267 265 265 263 259 255 253 252 254 255 255 256 257 258 260 262 262 264 267 269 268 259 246 238 230 228 235 242 245 249
100 104 109 110 110 110 112 115 115 116 118 120 124 128 131 137 142 146 158 184 208 217 219 219 194 167 177 213 258 315 334 354 2 358 352 346 342 342 339 337 336 331 327 323 319 318 317 312 306 304 303 304 304 294 278 268 265 264 261 257 253 247 241 240 242 245 250 254 256 260 260 254 251 260 264 250 231 216 215 222 231 245 255 252 243
89 91 92 94 97 99 100 103 104 105 105 106 110 116 121 125 124 118 115 113 110 109 109 103 98 97 94 88 78 64 49 40 29 12 3 357 353 353 352 351 352 350 345 340 335 333 331 321 313 314 315 320 331 329 308 283 272 268 258 247 240 234 231 233 236 241 249 255 259 263 264 259 256 255 246 236 227 212 208 225 240 250 258 278 336
89 88 87 87 89 90 91 91 90 89 90 93 96 98 100 103 108 109 108 104 101 100 96 87 84 82 78 75 68 55 40 28 17 7 1 357 352 350 348 347 348 348 348 347 340 329 321 319 321 327 332 339 348 350 342 318 290 275 257 237 225 220 221 223 222 227 243 259 272 275 273 267 255 231 214 217 220 211 211 237 255 256 260 339 348
86 85 83 80 79 79 79 79 77 77 79 82 84 87 88 90 95 100 99 96 95 95 93 89 86 73 60 55 45 31 19 8 1 357 352 348 346 343 340 338 337 338 343 348 346 334 323 327 336 342 348 355 359 357 353 346 319 286 264 248 237 228 222 208 190 189 253 288 287 274 256 231 209 200 198 201 199 196 224 264 275 276 290 323 327
80 79 77 75 74 74 75 75 74 74 74 74 75 77 80 82 83 83 82 81 80 77 77 80 76 32 7 7 4 359 352 346 344 340 336 333 331 329 326 325 325 326 330 339 347 346 337 334 342 356 7 14 16 9 1 359 350 321 299 306 3 41 47 71 81 70 35 297 245 213 198 200 199 193 192 194 201 230 267 271 265 266 278 293 298
77 76 76 75 75 74 74 73 73 72 70 69 68 69 72 73 73 70 66 65 63 61 57 44 10 344 339 339 340 342 340 337 334 332 329 327 325 323 323 324 324 321 320 327 338 346 344 338 342 359 19 32 33 27 21 18 17 12 13 31 55 69 67 64 70 80 101 152 167 159 161 183 194 191 200 225 241 257 264 254 245 252 267 277 282
75 75 76 75 73 72 70 69 68 66 65 64 61 60 59 57 57 56 53 48 42 33 21 4 346 336 330 329 333 336 334 331 330 329 329 329 328 328 332 335 332 328 325 325 332 341 345 344 348 2 22 32 30 28 29 28 26 26 33 50 76 91 92 94 102 111 132 155 166 165 169 186 200 208 223 240 248 251 248 237 236 247 260 268 273
75 74 73 71 68 65 64 63 61 60 59 58 56 53 49 44 40 37 34 32 27 20 13 3 352 343 336 333 334 335 334 334 335 336 336 337 336 337 342 347 344 338 334 331 334 342 347 351 0 12 23 25 25 33 39 38 35 37 42 61 88 100 108 119 125 135 162 178 188 197 208 221 230 233 237 242 241 234 227 227 233 245 255 262 267
71 69 66 63 60 57 56 54 52 51 50 49 47 45 42 38 35 31 28 25 22 19 17 12 6 359 352 348 345 344 344 344 343 344 344 342 340 342 349 357 359 353 347 342 343 350 356 1 7 12 15 22 35 46 46 39 33 35 45 60 73 81 93 110 127 149 171 189 205 216 223 231 235 232 228 227 224 221 224 232 241 250 258 263 267
64 61 58 56 54 53 51 50 47 45 43 42 40 39 37 34 32 29 27 24 19 16 13 8 3 358 354 351 349 347 347 346 346 349 349 348 347 348 353 2 10 14 13 8 6 14 23 27 48 99 87 56 40 31 24 20 21 33 55 78 89 97 108 112 113 121 131 152 181 199 208 212 216 217 220 225 234 243 250 255 260 264 267 269 274
61 58 55 52 49 47 46 45 43 40 38 35 34 34 33 33 29 25 22 19 12 7 3 358 354 351 350 349 348 346 346 348 350 355 358 357 356 357 3 16 25 30 36 41 43 46 52 77 151 149 96 356 325 336 2 19 43 66 85 102 106 109 117 115 110 108 114 127 143 150 325 306 294 287 278 272 271 270 270 270 272 273 275 276 279
57 55 51 48 44 41 40 38 35 32 30 27 25 25 25 26 24 19 14 10 4 358 355 351 347 346 348 349 349 348 346 349 353 360 6 9 9 11 24 34 38 43 54 63 65 64 65 106 180 183 45 33 41 66 83 94 97 96 99 102 99 97 98 95 87 70 32 0 329 310 302 298 297 292 287 283 280 277 276 275 275 276 277 278 279
43 41 37 34 32 30 29 27 24 22 19 17 17 17 15 14 13 11 6 1 354 348 345 341 338 339 341 343 347 348 346 349 356 4 13 21 26 31 38 42 43 48 59 69 77 81 84 99 113 110 106 108 106 103 102 99 93 87 73 54 45 38 23 12 357 341 333 328 320 310 304 299 295 290 286 283 279 276 276 276 276 277 277 278 280
18 14 10 8 8 8 7 6 5 4 3 2 2 4 3 2 1 359 356 352 345 338 333 329 326 326 329 333 339 343 344 345 351 1 12 19 20 24 33 38 40 47 59 71 84 93 99 108 117 118 117 115 111 105 98 83 63 43 24 9 358 347 338 328 320 316 314 311 307 304 300 297 293 289 285 282 279 279 278 276 276 277 278 278 279
333 332 330 331 334 336 338 339 339 340 342 343 343 346 347 348 346 344 342 341 338 331 323 318 316 315 317 320 325 331 335 336 337 343 350 350 351 4 21 32 35 50 73 91 100 105 113 122 127 128 127 124 116 94 42 5 348 341 340 335 326 320 316 311 309 308 305 303 300 298 296 294 292 289 286 284 283 283 281 280 279 278 278 278 279
317 315 314 312 312 314 315 317 319 319 320 322 324 326 328 329 329 329 328 328 329 327 321 315 310 307 308 309 311 315 319 323 321 319 325 333 341 351 5 31 98 93 125 148 143 135 144 147 140 145 192 265 296 303 308 311 310 309 308 305 304 303 303 302 302 302 301 300 299 297 296 295 294 294 293 291 289 288 286 285 283 281 281 283 285
323 321 318 314 313 313 312 313 314 313 312 311 309 309 310 312 313 315 315 315 316 318 317 314 309 304 302 301 300 301 305 309 309 306 311 328 337 336 327 205 184 180 182 181 174 176 193 205 219 249 268 282 290 293 294 296 297 297 298 298 299 300 301 301 301 300 300 299 298 296 295 295 294 295 295 294 293 293 292 290 289 288 288 289 289
315 314 311 309 308 307 307 308 309 310 312 312 310 307 305 304 305 306 307 307 306 305 306 306 305 302 297 292 291 294 296 298 299 298 302 315 322 310 271 207 188 192 194 197 206 220 239 255 263 271 277 282 287 289 292 294 297 299 303 307 309 310 310 309 308 307 306 304 303 302 301 300 299 297 296 294 294 294 293 292 292 291 291 291 291
307 306 305 304 303 302 302 303 304 305 307 308 309 310 308 306 305 304 302 302 302 301 300 299 299 297 294 288 285 286 286 288 290 290 293 302 308 292 245 208 195 196 199 208 226 249 276 284 286 291 294 294 297 300 303 307 310 312 314 315 315 313 312 310 308 307 307 307 307 308 308 308 306 304 301 299 298 297 296 295 294 293 291 291 290
310 309 308 307 306 306 308 309 308 307 307 306 307 309 309 308 307 305 302 300 297 296 296 294 292 290 289 286 283 280 278 278 280 282 284 290 294 280 238 209 200 196 197 220 270 298 309 311 313 313 311 310 311 312 313 315 317 317 317 317 316 314 312 309 307 306 306 306 309 311 312 311 308 304 302 300 299 299 299 297 296 295 294 293 290
318 317 316 315 314 314 315 313 309 306 305 305 305 305 305 306 306 304 304 302 298 294 291 290 288 287 286 286 284 279 275 273 274 274 273 277 280 266 234 209 202 203 212 263 296 308 318 320 321 320 318 316 315 315 315 315 315 314 314 313 311 311 312 309 307 306 305 307 312 314 312 310 309 308 306 304 302 301 299 297 297 300 300 297 295
304 304 305 306 309 310 310 308 307 305 304 304 304 303 302 302 302 302 302 302 299 296 293 290 287 282 280 281 282 279 274 272 272 270 266 267 266 253 227 208 208 223 233 262 303 328 336 335 331 328 323 319 317 316 314 313 312 312 313 309 304 303 303 302 301 303 305 308 311 311 309 309 311 310 308 308 307 304 302 300 299 300 296 290 293
301 297 295 295 296 297 298 300 302 304 304 305 305 304 302 300 299 299 298 298 297 296 293 291 289 284 280 277 275 272 270 270 269 265 261 258 253 241 222 210 213 219 214 223 332 346 346 342 338 334 330 327 325 322 319 317 315 312 309 309 305 303 305 306 308 309 309 308 308 305 304 308 311 307 305 307 305 302 302 299 296 295 293 291 291
324 319 315 310 306 304 304 304 304 305 307 308 308 307 307 305 303 299 297 297 297 296 294 293 291 288 283 278 272 268 267 267 264 260 257 252 242 228 215 209 210 208 199 201 315 339 344 342 338 336 334 331 328 327 326 325 323 316 310 316 317 313 315 318 318 313 310 309 309 307 305 309 310 304 302 301 298 296 295 294 293 296 297 295 292
340 338 335 331 326 322 319 316 314 313 312 311 309 308 307 306 305 304 302 301 298 296 295 294 292 289 284 279 275 272 269 265 260 256 254 250 239 222 212 210 208 204 206 226 283 320 335 339 338 337 334 330 329 330 330 327 323 317 308 309 314 319 321 321 319 316 314 314 315 315 312 312 311 308 304 300 296 295 296 298 304 310 308 303 296
346 345 343 340 337 332 329 326 323 321 319 316 312 309 306 303 301 301 302 301 299 297 296 294 293 290 285 280 278 278 277 270 261 253 248 242 229 215 210 211 209 209 221 249 285 313 328 335 337 335 332 330 329 328 324 320 317 311 307 308 312 317 318 318 320 322 320 316 316 318 319 320 321 316 311 307 304 306 308 311 317 320 317 306 298
352 352 351 348 344 339 335 332 330 329 327 323 319 315 312 308 304 301 299 298 298 297 296 295 294 293 290 286 282 281 279 272 259 247 237 228 218 209 207 211 213 219 236 259 286 310 324 331 332 331 331 330 327 320 315 310 302 303 307 308 304 302 308 314 321 325 321 310 324 334 324 322 321 314 310 309 307 307 310 314 321 326 319 300 293
353 353 352 350 346 342 338 335 334 332 329 326 325 324 321 317 312 308 303 300 300 300 299 297 295 294 295 294 289 285 283 275 259 240 224 214 209 208 208 209 215 231 252 271 292 311 324 328 329 329 327 323 314 310 310 300 284 293 306 301 296 300 307 314 323 329 323 297 334 325 319 318 314 308 307 309 309 310 316 327 332 331 315 293 291
351 351 350 348 345 342 339 336 334 331 330 331 333 335 334 332 330 326 322 319 319 318 317 315 312 311 310 308 304 300 295 283 258 234 221 213 208 208 211 218 235 254 270 287 302 316 325 327 327 326 321 313 305 307 307 289 252 259 293 299 303 307 311 314 324 338 354 116 270 297 306 313 314 310 310 313 315 319 331 344 347 332 308 297 298
344 345 345 344 344 342 340 337 334 332 333 336 337 338 341 344 344 346 348 348 349 350 349 346 346 343 336 330 326 316 302 276 235 219 222 231 233 229 235 259 273 278 289 304 314 320 324 326 325 319 308 297 294 305 307 288 253 283 304 310 314 318 320 315 342 346 353 276 278 292 303 314 317 315 316 319 316 314 323 341 346 332 310 306 308